This is the latest recevied weather packets stored in our database for station/object K2ATL. If no packets are shown the sender has not sent any weather packets the latest 10 day(s).
| Time | Temp. | Humidity | Pressure | Rain* | Wind** | Luminosity | Snow |
|---|---|---|---|---|---|---|---|
| 1777622446 | 10.56° C | 67% | 1097.4 hPa | 0 mm | - | 0 W/m² | - |
| 1777622143 | 10.56° C | 66% | 1097.4 hPa | 0 mm | - | 0 W/m² | - |
| 1777621838 | 11.11° C | 65% | 1097.3 hPa | 0 mm | - | 0 W/m² | - |
| 1777621535 | 11.11° C | 65% | 1097.7 hPa | 0 mm | - | 0 W/m² | - |
| 1777621232 | 10.56° C | 65% | 1097.8 hPa | 0 mm | - | 0 W/m² | - |
| 1777620928 | 10.56° C | 64% | 1097.8 hPa | 0 mm | - | 0 W/m² | - |
| 1777620623 | 11.11° C | 63% | 1097.8 hPa | 0 mm | - | 0 W/m² | - |
| 1777620320 | 11.11° C | 63% | 1097.8 hPa | 0 mm | - | 0 W/m² | - |
| 1777620017 | 11.11° C | 63% | 1097.7 hPa | 0 mm | - | 0 W/m² | - |
| 1777619713 | 11.11° C | 63% | 1097.7 hPa | 0 mm | - | 0 W/m² | - |
| 1777619408 | 11.11° C | 62% | 1097.7 hPa | 0 mm | - | 0 W/m² | - |
| 1777619108 | 11.11° C | 64% | 1097.5 hPa | 0 mm | - | 0 W/m² | - |
| 1777618803 | 11.67° C | 60% | 1097.7 hPa | 0 mm | - | 0 W/m² | - |
| 1777618497 | 11.11° C | 61% | 1097.5 hPa | 0 mm | - | 0 W/m² | - |
| 1777618194 | 11.11° C | 62% | 1097.6 hPa | 0 mm | - | 0 W/m² | - |
| 1777617891 | 11.67° C | 61% | 1097.7 hPa | 0 mm | - | 0 W/m² | - |
| 1777617586 | 11.11° C | 61% | 1097.6 hPa | 0 mm | - | 0 W/m² | - |
| 1777617283 | 11.11° C | 62% | 1097.9 hPa | 0 mm | - | 0 W/m² | - |
| 1777616980 | 11.67° C | 64% | 1097.8 hPa | 0 mm | - | 0 W/m² | - |
| 1777616675 | 11.67° C | 62% | 1097.8 hPa | 0 mm | - | 0 W/m² | - |
| 1777616370 | 11.67° C | 63% | 1097.5 hPa | 0 mm | - | 0 W/m² | - |
| 1777616067 | 11.67° C | 62% | 1097.6 hPa | 0 mm | - | 0 W/m² | - |
| 1777615764 | 11.67° C | 63% | 1097.6 hPa | 0 mm | - | 0 W/m² | - |
| 1777615462 | 11.67° C | 64% | 1097.3 hPa | 0 mm | - | 0 W/m² | - |
| 1777615160 | 11.67° C | 64% | 1097.5 hPa | 0 mm | - | 0 W/m² | - |
* Rain latest hour (hover to see other rain measurements)
** Current wind speed in m/s (hover to see current wind gust speed)